TimeCDT,TemperatureF,Dew PointF,Humidity,Sea Level PressureIn,VisibilityMPH,Wind Direction,Wind SpeedMPH,Gust SpeedMPH,PrecipitationIn,Events,Conditions,WindDirDegrees,DateUTC
12:15 AM,30.6,25.7,82,29.96,10.0,Calm,Calm,-,N/A,,Mostly Cloudy,0,2013-10-23 05:15:00
12:35 AM,30.0,25.7,84,29.96,10.0,Calm,Calm,-,N/A,,Mostly Cloudy,0,2013-10-23 05:35:00
12:55 AM,29.3,25.3,85,29.96,10.0,Calm,Calm,-,N/A,,Overcast,0,2013-10-23 05:55:00
1:15 AM,29.5,25.5,85,29.96,10.0,Calm,Calm,-,N/A,,Scattered Clouds,0,2013-10-23 06:15:00
1:35 AM,28.6,25.3,88,29.96,10.0,Calm,Calm,-,N/A,,Clear,0,2013-10-23 06:35:00
1:55 AM,27.7,24.6,88,29.96,10.0,Calm,Calm,-,N/A,,Clear,0,2013-10-23 06:55:00
2:15 AM,27.1,24.4,90,29.96,10.0,Calm,Calm,-,N/A,,Clear,0,2013-10-23 07:15:00
2:35 AM,27.5,24.6,89,29.96,10.0,Calm,Calm,-,N/A,,Clear,0,2013-10-23 07:35:00
2:55 AM,26.4,23.5,89,29.95,10.0,Calm,Calm,-,N/A,,Scattered Clouds,0,2013-10-23 07:55:00
3:15 AM,26.4,24.6,93,29.95,10.0,Calm,Calm,-,N/A,,Clear,0,2013-10-23 08:15:00
3:35 AM,25.2,23.4,93,29.95,10.0,Calm,Calm,-,N/A,,Clear,0,2013-10-23 08:35:00
3:55 AM,26.4,24.3,92,29.95,10.0,Calm,Calm,-,N/A,,Clear,0,2013-10-23 08:55:00
4:15 AM,26.4,24.1,91,29.95,10.0,Calm,Calm,-,N/A,,Scattered Clouds,0,2013-10-23 09:15:00
4:35 AM,25.3,23.0,91,29.95,10.0,Calm,Calm,-,N/A,,Mostly Cloudy,0,2013-10-23 09:35:00
4:55 AM,26.4,24.3,92,29.95,10.0,Calm,Calm,-,N/A,,Scattered Clouds,0,2013-10-23 09:55:00
5:15 AM,25.3,23.4,92,29.95,10.0,Calm,Calm,-,N/A,,Clear,0,2013-10-23 10:15:00
5:35 AM,24.4,22.5,92,29.95,10.0,Calm,Calm,-,N/A,,Clear,0,2013-10-23 10:35:00
5:55 AM,24.1,22.3,93,29.96,10.0,Calm,Calm,-,N/A,,Scattered Clouds,0,2013-10-23 10:55:00
6:15 AM,23.7,21.7,92,29.96,10.0,Calm,Calm,-,N/A,,Clear,0,2013-10-23 11:15:00
6:35 AM,24.8,23.0,93,29.96,10.0,Calm,Calm,-,N/A,,Clear,0,2013-10-23 11:35:00
6:55 AM,24.4,22.6,93,29.96,10.0,Calm,Calm,-,N/A,,Mostly Cloudy,0,2013-10-23 11:55:00
7:15 AM,23.2,21.6,94,29.97,10.0,Calm,Calm,-,N/A,,Overcast,0,2013-10-23 12:15:00
7:35 AM,23.7,22.1,94,29.97,10.0,Calm,Calm,-,N/A,,Mostly Cloudy,0,2013-10-23 12:35:00
7:55 AM,23.7,21.7,92,29.97,10.0,Calm,Calm,-,N/A,,Scattered Clouds,0,2013-10-23 12:55:00
8:15 AM,26.6,24.6,92,29.98,10.0,Calm,Calm,-,N/A,,Clear,0,2013-10-23 13:15:00
8:35 AM,29.3,26.6,90,29.98,10.0,West,4.6,-,N/A,,Clear,280,2013-10-23 13:35:00
8:55 AM,30.7,26.6,85,29.98,10.0,West,3.5,-,N/A,,Clear,280,2013-10-23 13:55:00
9:15 AM,32.0,25.3,76,29.98,10.0,WNW,4.6,-,N/A,,Clear,300,2013-10-23 14:15:00
9:35 AM,32.9,25.5,74,29.98,10.0,NW,5.8,-,N/A,,Clear,310,2013-10-23 14:35:00
9:55 AM,34.5,25.5,70,29.98,10.0,NW,8.1,-,N/A,,Mostly Cloudy,310,2013-10-23 14:55:00
10:15 AM,34.7,25.2,68,29.98,10.0,WNW,6.9,-,N/A,,Overcast,300,2013-10-23 15:15:00
10:35 AM,35.1,26.1,70,29.98,10.0,West,5.8,-,N/A,,Overcast,280,2013-10-23 15:35:00
10:55 AM,35.4,25.9,68,29.98,10.0,West,8.1,-,N/A,,Overcast,280,2013-10-23 15:55:00
11:15 AM,37.2,25.3,62,29.98,10.0,WNW,3.5,-,N/A,,Overcast,290,2013-10-23 16:15:00
11:35 AM,38.1,24.6,58,29.98,10.0,West,6.9,-,N/A,,Overcast,260,2013-10-23 16:35:00
11:55 AM,38.5,23.5,55,29.98,10.0,WNW,6.9,-,N/A,,Overcast,300,2013-10-23 16:55:00
12:15 PM,39.6,25.0,56,29.97,10.0,WNW,9.2,-,N/A,,Overcast,290,2013-10-23 17:15:00
12:35 PM,39.9,23.9,53,29.97,10.0,WNW,8.1,-,N/A,,Overcast,290,2013-10-23 17:35:00
12:55 PM,39.2,24.3,55,29.97,10.0,West,8.1,-,N/A,,Overcast,260,2013-10-23 17:55:00
1:15 PM,39.0,27.0,62,29.96,10.0,WSW,9.2,-,N/A,,Overcast,250,2013-10-23 18:15:00
1:35 PM,37.8,27.3,66,29.96,10.0,West,6.9,-,N/A,,Overcast,280,2013-10-23 18:35:00
1:55 PM,39.2,28.2,65,29.96,10.0,West,6.9,-,N/A,,Overcast,280,2013-10-23 18:55:00
2:15 PM,39.2,25.7,58,29.95,10.0,West,10.4,-,N/A,,Overcast,280,2013-10-23 19:15:00
2:35 PM,39.2,25.2,57,29.95,10.0,West,6.9,-,N/A,,Overcast,270,2013-10-23 19:35:00
2:55 PM,38.8,25.0,58,29.95,10.0,West,5.8,-,N/A,,Overcast,280,2013-10-23 19:55:00
3:15 PM,39.0,25.2,58,29.95,10.0,West,6.9,-,N/A,,Overcast,280,2013-10-23 20:15:00
3:35 PM,38.8,23.9,55,29.96,10.0,WNW,10.4,-,N/A,,Overcast,290,2013-10-23 20:35:00
3:55 PM,38.8,22.6,52,29.96,10.0,WNW,10.4,-,N/A,,Overcast,300,2013-10-23 20:55:00
4:15 PM,38.5,24.3,57,29.97,10.0,West,6.9,-,N/A,,Overcast,280,2013-10-23 21:15:00
4:35 PM,38.5,23.7,55,29.97,10.0,NNW,9.2,-,N/A,,Overcast,330,2013-10-23 21:35:00
4:55 PM,36.9,23.9,59,29.97,10.0,NNW,6.9,-,N/A,,Overcast,330,2013-10-23 21:55:00
5:15 PM,36.7,24.8,62,29.97,10.0,NNW,5.8,-,N/A,,Overcast,330,2013-10-23 22:15:00
5:35 PM,36.5,26.1,66,29.97,10.0,NW,4.6,-,N/A,,Overcast,320,2013-10-23 22:35:00
5:55 PM,36.3,26.1,66,29.98,10.0,NW,3.5,-,N/A,,Overcast,320,2013-10-23 22:55:00
6:15 PM,36.0,26.4,68,29.98,10.0,Calm,Calm,-,N/A,,Overcast,0,2013-10-23 23:15:00
6:35 PM,35.2,26.6,71,29.98,10.0,WNW,3.5,-,N/A,,Overcast,290,2013-10-23 23:35:00
6:55 PM,35.4,26.1,69,29.99,10.0,NW,3.5,-,N/A,Snow,Light Snow,310,2013-10-23 23:55:00
7:15 PM,35.2,25.9,69,29.99,10.0,WNW,3.5,-,N/A,,Overcast,300,2013-10-24 00:15:00
7:35 PM,34.9,26.6,72,30.00,10.0,WNW,3.5,-,N/A,,Overcast,300,2013-10-24 00:35:00
7:55 PM,34.9,26.4,71,29.99,10.0,WNW,4.6,-,N/A,,Overcast,300,2013-10-24 00:55:00
8:15 PM,34.7,26.2,71,30.00,10.0,NW,3.5,-,N/A,,Overcast,310,2013-10-24 01:15:00
8:35 PM,34.7,25.9,70,30.00,10.0,Calm,Calm,-,N/A,,Overcast,0,2013-10-24 01:35:00
8:55 PM,34.7,26.4,72,30.00,10.0,WNW,3.5,-,N/A,,Overcast,300,2013-10-24 01:55:00
9:15 PM,34.0,26.6,74,30.00,10.0,WNW,3.5,-,N/A,,Overcast,300,2013-10-24 02:15:00
9:35 PM,33.8,27.0,76,30.00,10.0,WNW,4.6,-,N/A,,Overcast,290,2013-10-24 02:35:00
9:55 PM,34.2,26.4,73,30.00,10.0,WNW,6.9,-,N/A,,Overcast,300,2013-10-24 02:55:00
10:15 PM,34.0,26.4,74,30.00,10.0,WNW,5.8,-,N/A,,Overcast,300,2013-10-24 03:15:00
10:35 PM,33.8,26.8,75,30.01,10.0,WNW,4.6,-,N/A,,Overcast,290,2013-10-24 03:35:00
10:55 PM,33.6,26.6,75,30.01,10.0,WNW,5.8,-,N/A,Snow,Light Snow,300,2013-10-24 03:55:00
11:15 PM,33.3,26.6,77,30.01,10.0,WNW,5.8,-,N/A,,Overcast,290,2013-10-24 04:15:00
11:35 PM,33.3,26.6,77,30.02,10.0,WNW,4.6,-,N/A,,Overcast,300,2013-10-24 04:35:00
11:55 PM,33.1,26.6,77,30.02,10.0,NW,5.8,-,N/A,,Overcast,310,2013-10-24 04:55:00